Location: ???????
(48.5572°N, 37.7836°E)
Time: 14:34:09
(UTC+00:00)

Daily predictions for brighter satellites

Satellite Brightness Start Highest point End
(mag) Time Altitude Azimuth Time Altitude Azimuth Time Altitude Azimuth
Meteor 1-20 Rocket 4.4 14:02:30 10° N 14:08:18 62° ENE 14:14:05 10° SSE
Cosmos 1656 4.4 14:03:12 10° NW 14:08:40 60° WSW 14:14:09 10° S
Cosmos 2360 Rocket 4.0 14:08:11 10° N 14:10:23 12° NNE 14:12:36 10° NE
Cosmos 1805 Rocket 4.0 14:06:27 10° N 14:10:34 40° ENE 14:14:39 10° SE
SL-16 R/B 4.5 14:07:26 10° N 14:12:11 24° NW 14:16:57 10° WSW
Cosmos 1340 Rocket 2.9 14:10:46 10° NNW 14:14:52 86° W 14:18:56 10° S
Cosmos 540 Rocket 3.9 14:10:36 10° S 14:15:23 42° ESE 14:20:12 10° NE
Cosmos 1842 Rocket 3.8 14:12:32 10° SSW 14:17:00 79° W 14:21:31 10° N
Cosmos 1092 Rocket 4.1 14:11:37 10° N 14:17:54 58° ENE 14:24:07 10° SSE
CZ-4C R/B 3.5 14:15:42 10° N 14:19:31 71° WNW 14:23:08 10° SSW
ERBS 3.9 14:20:33 10° WNW 14:23:06 21° NNW 14:25:38 10° NE
Lacrosse 5 rocket 1.9 14:20:21 10° NW 14:23:55 35° NNE 14:27:41 10° E
COSMOS 2455 3.3 14:18:39 10° S 14:24:18 44° ESE 14:30:00 10° NE
ATLAS CENTAUR R/B 3.7 14:21:31 10° WNW 14:24:22 17° NNW 14:27:19 10° NNE
USA 308 3.6 14:24:26 10° WNW 14:28:27 39° N 14:32:04 12° ENE
Cosmos 1666 3.8 14:26:15 10° NNE 14:29:16 23° ENE 14:32:16 10° SE
CZ-4C R/B 3.0 14:23:54 10° NW 14:30:49 62° NE 14:39:01 10° ESE
Cosmos 2322 Rocket 3.5 14:28:17 10° N 14:32:29 20° NE 14:36:28 11° E
Cosmos 1697 Rocket 3.0 14:27:03 10° NNW 14:32:41 75° WSW 14:38:16 10° SSE
Spot 1 4.4 14:28:12 10° NNE 14:32:59 85° ESE 14:37:58 10° SSW
Meteor 2-21 4.4 14:30:42 10° N 14:36:44 61° ENE 14:42:42 10° SSE
Cosmos 1980 Rocket 2.2 14:32:15 10° NNW 14:37:56 68° ENE 14:43:33 10° SE
Cosmos 468 Rocket 4.1 14:33:29 10° SSW 14:38:39 79° WNW 14:43:54 10° NNE
NOAA 12 4.3 14:35:06 10° S 14:40:26 77° WSW 14:45:46 10° NNW
Cosmos 1627 Rocket 4.4 14:34:38 10° N 14:40:49 72° ENE 14:46:55 10° SSE
PSLV R/B 3.9 14:39:59 10° SE 14:43:31 44° ENE 14:47:06 10° N
NOSS 2-2 (C) 4.3 14:38:51 10° NW 14:43:56 89° NE 14:51:08 10° SE
Cosmos 2369 3.8 14:38:46 10° NNW 14:44:33 89° WSW 14:50:16 10° SSE
Cosmos 2279 Rocket 4.4 14:39:27 10° SSE 14:45:09 40° E 14:50:52 10° NNE
Cosmos 1898 Rocket 4.3 14:40:09 10° NNW 14:45:18 57° WSW 14:50:22 10° S
Cosmos 2034 Rocket 4.3 14:39:39 10° SSW 14:45:47 69° WNW 14:51:57 10° N
FengYun 1-2 T 4.4 14:42:11 10° SSE 14:47:46 81° WSW 14:53:20 10° NNW
COSMO-SKYMED 1 3.8 14:45:28 15° NE 14:47:54 22° E 14:51:18 10° SE
CORIOLIS 4.1 14:44:46 10° SSE 14:50:10 80° ENE 14:55:38 10° NNW
USA 267 3.3 14:44:43 13° ENE 14:50:38 76° SE 14:57:10 10° SW
Cosmos 1818 3.8 14:46:37 10° NNW 14:51:58 49° NE 14:57:15 10° ESE
SL-16 R/B 2.9 14:46:57 10° NNW 14:51:59 31° NE 14:56:58 10° ESE
Meteor 1-5 Rocket 4.5 14:46:14 10° N 14:52:05 51° ENE 14:57:49 10° SSE
Cosmos 1933 3.4 14:48:03 10° SSW 14:52:06 81° WNW 14:56:09 10° N
Cosmos 1633 Rocket 3.4 14:48:09 10° N 14:52:18 40° ENE 14:56:26 10° SE
USA 305 3.5 14:50:06 10° WNW 14:54:09 42° N 14:56:38 21° ENE
CZ-4B R/B 4.0 14:50:42 10° S 14:54:32 45° W 14:58:13 10° NNW
Cosmos 2082 Rocket 2.3 14:50:26 10° SSW 14:56:01 62° ESE 15:01:09 12° NE
Cosmos 1812 3.0 14:52:50 10° SSE 14:56:29 43° E 14:59:47 12° NNE
Meteor 2-14 Rocket 4.4 14:51:55 10° N 14:58:03 87° ENE 15:04:09 10° S
YAOGAN 1 4.2 14:59:46 16° NE 14:59:46 16° NE 15:01:20 10° NNE
AQUARIUS 4.2 14:53:54 10° SSE 14:58:24 88° W 15:02:55 10° NNW
Cosmos 1151 Rocket 3.3 14:55:47 10° SSE 14:59:53 44° E 15:04:04 10° NNE
Meteor 1-14 Rocket 4.3 14:55:19 10° N 15:01:08 65° ENE 15:07:01 10° SSE
SMAP 3.4 14:57:58 10° S 15:02:36 70° WSW 15:07:17 10° NNW
MOS 1-B 4.3 14:58:50 10° SSE 15:04:33 69° ENE 15:10:19 10° NNW
Cosmos 1634 Rocket 4.0 14:58:15 10° S 15:04:34 83° E 15:10:57 10° N
Cosmos 2026 Rocket 4.1 14:59:28 10° N 15:05:37 80° W 15:11:40 10° S
ARGOS 3.4 15:01:04 10° SE 15:06:10 44° ENE 15:11:17 10° N
Cosmos 2333 Rocket 3.8 15:03:09 10° N 15:06:33 16° NNE 15:07:03 16° NE
MOS 1-B Rocket 4.2 15:01:38 10° NNE 15:07:29 55° ESE 15:14:08 10° S
Cosmos 2278 3.6 15:02:07 10° NNW 15:07:52 82° ENE 15:13:34 10° SSE
Cosmos 1763 Rocket 4.5 15:03:49 10° SW 15:08:39 44° WNW 15:13:35 10° NNE
CZ-4B DEB 4.3 15:03:32 10° SSE 15:09:03 85° WSW 15:14:36 10° NNW
GEOS 3 Rocket 4.4 15:08:21 22° ENE 15:10:43 33° NNE 15:15:17 10° NNW
Landsat 5 4.5 15:12:05 25° E 15:12:05 25° E 15:15:10 10° SSE
Cosmos 2208 Rocket 4.4 15:08:03 10° S 15:13:12 46° ESE 15:16:36 20° NE
Cosmos 1833 Rocket 3.4 15:08:31 10° SW 15:13:59 52° NW 15:19:32 10° NNE
Cosmos 2150 Rocket 4.2 15:11:00 10° NNW 15:15:58 44° ENE 15:20:57 10° SE
Cosmos 44 Rocket 3.2 15:11:09 10° NW 15:16:05 66° NE 15:20:34 11° SE
Cosmos 841 Rocket 3.6 15:11:37 10° SSW 15:16:47 78° WNW 15:21:40 12° NNE
ATLAS 2AS CENTAUR R/B 4.2 15:13:32 10° NW 15:19:37 25° N 15:23:11 18° NE
Cosmos 1666 Rocket 3.5 15:15:30 10° N 15:19:59 90° SSE 15:24:23 10° S
Okean O Rocket 1.7 15:15:54 10° SE 15:20:13 51° ENE 15:24:33 10° N
H-2A R/B 1.9 15:15:31 10° SSE 15:20:40 88° ENE 15:25:43 10° NNW
COSMOS 2406 3.8 15:17:06 10° SW 15:22:45 58° WNW 15:28:06 12° NNE
Cosmos 1328 Rocket 3.6 15:19:00 10° S 15:23:21 56° E 15:26:18 20° NNE
Cosmos 1470 Rocket 3.7 15:19:01 10° N 15:23:21 49° ENE 15:27:42 10° SSE
Cosmos 2219 Rocket 3.9 15:20:07 10° N 15:23:03 16° NNE 15:23:03 16° NNE
Meteor 2-21 Rocket 4.5 15:17:40 10° NNW 15:23:48 82° W 15:29:52 10° S
Meteor 2-8 Rocket 4.5 15:17:58 10° S 15:23:57 58° E 15:30:00 10° NNE
USA 234 3.5 15:18:34 10° SE 15:25:05 70° SW 15:31:38 10° WNW
CZ-2C R/B 2.6 15:21:28 13° NNE 15:26:04 55° E 15:31:07 10° S
USA 306 3.2 15:22:23 10° WNW 15:26:32 49° NNE 15:27:35 39° ENE
Cosmos 1125 Rocket 3.6 15:23:21 10° NNW 15:28:29 51° ENE 15:33:31 10° SE
Meteor 1-27 Rocket 4.4 15:27:23 10° SSE 15:31:41 30° E 15:31:41 30° E
ISS -1.8 15:29:51 10° W 15:32:49 28° SW 15:35:19 13° SSE
Cosmos 1655 Rocket 4.0 15:27:34 10° N 15:33:55 61° ENE 15:40:12 10° SSE
SKYMED 2 3.5 15:34:05 29° NNE 15:36:14 65° ESE 15:40:32 10° S
Cosmos 2180 Rocket 4.4 15:31:50 10° S 15:38:08 75° E 15:44:24 10° NNE
Cosmos 1900 4.2 15:33:23 10° SSW 15:38:12 67° ESE 15:39:48 41° NE
CZ-4B R/B 3.1 15:32:58 10° SSE 15:38:23 87° WSW 15:43:45 10° NNW
Meteor 2-6 Rocket 4.1 15:35:12 10° S 15:40:55 77° E 15:46:16 11° NNE
Cosmos 1782 4.4 15:37:50 10° SW 15:41:31 35° WNW 15:45:12 10° N
CZ-2D R/B 4.4 15:39:05 10° S 15:42:45 43° W 15:46:25 10° NNW
SJ-11-01 4.2 15:41:08 10° SSE 15:45:53 89° WSW 15:50:40 10° NNW
USA 307 3.0 15:41:59 10° WNW 15:46:11 55° NNE 15:46:23 54° NNE
Cosmos 2237 4.3 15:46:36 10° NNW 15:52:11 50° NE 15:52:53 47° E
deb Chang Zheng 4 3.9 15:49:14 10° S 15:53:31 65° WSW 15:57:49 10° NNW
Cosmos 2360 Rocket 2.7 15:50:42 10° NNW 15:55:33 40° NE 15:55:33 40° NE
Lacrosse 5 rocket 1.7 15:59:18 10° WNW 16:03:12 59° SW 16:03:35 56° SSW
ATLAS CENTAUR R/B 4.1 16:03:55 10° NNW 16:04:54 11° N 16:04:54 11° N
Cosmos 1515 Rocket 3.5 16:03:27 10° S 16:07:37 78° S 16:07:37 78° S
USA 308 3.3 16:04:34 10° WNW 16:08:06 55° NNW 16:08:06 55° NNW
Meteor 1-11 Rocket 3.6 16:04:21 10° NNW 16:10:01 88° W 16:15:47 10° S
Meteor 1-10 Rocket 4.2 16:04:23 10° SSW 16:10:09 86° W 16:13:43 24° N
COSMOS 2455 3.8 16:04:34 10° WSW 16:10:17 43° NW 16:13:30 24° NNE
COSMOS 2428 4.4 16:07:53 10° N 16:10:05 18° N 16:10:05 18° N
Cosmos 2322 Rocket 2.1 16:11:40 10° NNW 16:17:24 84° ENE 16:18:22 64° SE
CZ-4C R/B 4.0 16:12:33 10° NW 16:19:28 45° WSW 16:27:21 10° S
Cosmos 921 Rocket 3.5 16:17:19 10° SSW 16:21:05 57° W 16:21:05 57° W
SL-08 RB Rocket 4.2 16:17:04 10° S 16:21:39 59° W 16:26:13 10° NNW
COSMO-SKYMED 1 3.7 16:22:41 30° NNW 16:24:15 42° WNW 16:28:20 10° SW
Meteor 2-15 Rocket 4.5 16:19:27 10° SSW 16:25:35 79° W 16:29:58 20° N
ATLAS CENTAUR R/B 3.4 16:22:57 10° W 16:28:48 34° NNW 16:28:48 34° NNW
USA 267 3.7 16:32:04 45° NNE 16:33:30 53° NNW 16:39:49 10° W
USA 305 4.3 16:30:03 10° WNW 16:32:38 36° WNW 16:32:38 36° WNW
SL-16 R/B 2.8 16:30:51 10° NW 16:36:24 55° WSW 16:39:04 30° S
Cosmos 2082 Rocket 3.9 16:35:39 10° WSW 16:40:31 29° NW 16:43:01 21° N
GEOS 3 Rocket 4.1 16:49:28 57° WNW 16:49:28 57° WNW 16:53:41 10° NW
Cosmos 2333 Rocket 3.7 16:46:28 10° NNW 16:49:04 27° NNW 16:49:04 27° NNW
Okean O Rocket 4.2 16:53:36 10° SW 16:56:51 20° W 17:00:07 10° NW
Cosmos 2219 Rocket 4.1 17:03:06 10° NNW 17:04:47 20° NNW 17:04:47 20° NNW
NOSS 3-4 (A) 4.4 17:02:55 10° NW 17:07:33 44° NNW 17:07:33 44° NNW
NOSS 3-4 (C) 4.4 17:03:01 10° NW 17:07:38 44° NNW 17:07:38 44° NNW
ATLAS 2AS CENTAUR R/B 3.9 17:05:51 10° NW 17:10:37 32° N 17:10:37 32° N
Cosmos 2360 Rocket 4.1 17:34:50 10° NW 17:37:21 24° WNW 17:37:21 24° WNW
